Location: Biçisarri
(42.4820°N, 1.4605°E)
Time: 16:08:36
(UTC+00:00)

Cosmos 2098 Rocket - Pass Details

Date: 19 November 2025
Orbit: 350 x 871 km, 82.9° (Epoch: 12 December)

Event Time Altitude Azimuth Distance (km) Brightness Sun altitude
Rises 05:46:31 0° 7° (N) 2,851 6.4 -11.8°
Reaches altitude 10° 05:49:02 10° 23° (NNE) 2,040 5.8 -11.4°
Maximum altitude 05:52:38 23° 75° (ENE) 1,491 5.8 -10.7°
Drops below altitude 10° 05:56:38 10° 126° (SE) 2,287 7.3 -10.0°
Sets 05:59:36 0° 141° (SE) 3,292 7.8 -9.5°
